Probability
0 0 0 0 0 0 0 0 0 0 0 0 0 0 0 0 0 0 0 0 0 0 0 0 0 0 0 0 0 0 0 0 0 0 0 0 0 0 0 0 0 0 0 0
0 0 0 0 0 0 0 0 0 0 0 0 0 0 0 0 0 0 0 0 0 0 0 0 0 0 0 0 0 0 0 0 0 0 0 0 0 0 0 0 0 0 0 0
0 0 0 0 0 0 0 0 0 0 0 0 0 0 0 0 0 0 0 0 0 0 0 0 0 0 0 0 0 0 0 0 0 0 0 0 0 0 0 0 0 0 0 0
0 0 0 0 0 0 0 0 0 0 0 0 0 0 0 0 0 0 0 0 0 0 0 0 0 0 0 0 0 0 0 0 0 0 0 0 0 0 0 0 0 0 0 0
0 0 0 0 0 0 0 0 0 0 0 0 0 0 0 0 0 0 0 0 0 0 0 0 0 0 0 0 0 0 0 0 0 0 0 0 0 0 0 0 0 0 0 0
0 0 0 0 0 0 0 0 0 0 0 0 0 0 0 0 0 0 0 0 0 0 0 0 0 0 0 0 0 0 0 0 0 0 0 0 0 0 0 0 0 0 0 0
0 0 0 0 0 0 0 0 0 0 0 0 0 0 0 0 0 0 0 0 0 0 0 0 0 0 0 0 0 0 0 0 0 0 0 0 0 0 0 0 0 0 1 1
0 0 0 0 0 0 0 0 0 0 0 0 0 0 0 0 0 0 0 0 0 0 0 0 0 0 0 0 0 0 0 0 0 0 0 0 0 0 0 0 0 0 1 2
0 0 0 0 0 0 0 0 0 0 0 0 0 0 0 0 0 0 0 0 0 0 0 0 0 0 0 0 0 0 0 0 0 0 0 0 0 0 0 0 0 0 1 2
0 0 0 0 0 0 0 0 0 0 0 0 0 0 0 0 0 0 0 0 0 0 0 0 0 0 0 0 0 0 0 0 0 0 0 0 0 0 0 0 0 0 0 1
0 0 0 0 0 0 0 0 0 0 0 0 0 0 0 0 0 0 0 0 0 0 0 0 0 0 0 0 0 0 0 0 0 0 0 0 0 0 0 0 0 0 0 0
0 0 0 0 0 0 0 0 0 0 0 0 0 0 0 0 0 0 0 0 0 0 0 0 0 0 0 0 0 0 0 0 0 0 0 0 0 0 0 0 0 0 0 0
0 0 0 0 0 0 0 0 0 0 0 0 0 0 0 0 0 0 0 0 0 0 0 0 0 0 0 0 0 0 0 0 0 0 0 0 0 0 0 0 0 0 0 0
0 0 0 0 0 0 0 0 0 0 0 0 0 0 0 0 0 0 0 0 0 0 0 0 0 0 0 0 0 0 0 0 0 0 0 0 0 0 0 0 0 0 0 0
0 0 0 0 0 0 0 0 0 0 0 0 0 0 0 0 0 0 0 0 0 0 0 0 0 0 0 0 0 0 0 0 0 0 0 0 0 0 0 0 0 0 0 0
0 0 0 0 0 0 0 0 0 0 0 0 0 0 0 0 0 0 0 0 0 0 0 0 0 0 0 0 0 0 0 0 0 0 0 0 0 0 0 0 0 0 0 0
0 0 0 0 0 0 0 0 0 0 0 0 0 0 0 0 0 0 0 0 0 0 0 0 0 0 0 0 0 0 0 0 0 0 0 0 0 0 0 0 0 0 0 0
0 0 0 0 0 0 0 0 0 0 0 0 0 0 0 0 0 0 0 0 0 0 0 0 0 0 0 0 0 0 0 0 0 0 0 0 0 0 0 0 0 0 0 0
0 0 0 0 0 0 0 0 0 0 0 0 0 0 0 0 0 0 0 0 0 0 0 0 0 0 0 0 0 0 0 0 0 0 0 0 0 0 0 0 0 0 0 0
0 0 0 0 0 0 0 0 0 0 0 0 0 0 0 0 0 0 0 0 0 0 0 0 0 0 0 0 0 0 0 0 0 0 0 0 0 0 0 0 0 0 0 0
0 0 0 0 0 0 0 0 0 0 0 0 0 0 0 0 0 0 0 0 0 0 0 0 0 0 0 0 0 0 0 0 0 0 0 0 0 0 0 0 0 0 0 0
0 0 0 0 0 0 0 0 0 0 0 0 0 0 0 0 0 0 0 0 0 0 0 0 0 0 0 0 0 0 0 0 0 0 0 0 0 0 0 0 0 0 0 0
0 0 0 0 0 0 0 0 0 0 0 0 0 0 0 0 0 0 0 0 0 0 0 0 0 0 0 0 0 0 0 0 0 0 0 0 0 0 0 0 0 0 0 0
0 0 0 0 0 0 0 0 0 0 0 0 0 0 0 0 0 0 0 0 0 0 0 0 0 0 0 0 0 0 0 0 0 0 0 0 0 0 0 0 0 0 0 0
0 0 0 0 0 0 0 0 0 0 0 0 0 0 0 0 0 0 0 0 0 0 0 0 0 0 0 0 0 0 0 0 0 0 0 0 0 0 0 0 0 0 0 0
0 0 0 0 0 0 0 0 0 0 0 0 0 0 0 0 0 0 0 0 0 0 0 0 0 0 0 0 0 0 0 0 0 0 0 0 0 0 0 0 0 0 0 0
0 0 0 0 0 0 0 0 0 0 0 0 0 0 0 0 0 0 0 0 0 0 0 0 0 0 0 0 0 0 0 0 0 0 0 0 0 0 0 0 0 0 0 0
Wind_Speed
5 2 4 6 7 10 12 10 8 6 6 6 4 4 5 7 8 9 10 10 11 10 10 10 11 10 10 10 9 9 9 8 7 7 6 6 5 5 4 4 3 3 3 3
6 5 6 7 8 10 11 11 11 10 9 5 4 4 5 7 9 10 11 11 11 11 10 11 11 10 10 10 10 9 9 8 7 7 6 6 5 5 5 4 4 4 4 4
6 4 6 9 9 10 10 9 10 10 8 4 4 5 6 7 10 11 11 11 11 11 11 11 11 11 11 11 10 9 9 8 8 7 7 6 6 6 5 5 4 4 4 4
5 5 9 2 2 6 9 10 10 9 7 6 5 4 5 6 9 10 11 11 11 10 11 10 10 10 10 10 10 10 9 8 8 7 7 6 6 6 5 5 5 4 4 4
6 7 7 5 5 6 7 7 7 8 7 5 3 4 5 6 7 8 9 10 9 10 10 10 10 10 11 10 10 10 9 8 8 8 7 7 7 6 5 5 5 4 4 4
7 8 7 3 4 4 6 6 4 5 5 5 7 5 3 4 6 7 8 8 8 9 10 10 10 11 11 11 10 10 9 8 8 7 7 7 7 6 5 5 5 4 4 4
11 9 7 1 5 6 7 1 2 4 5 6 7 2 3 5 5 6 7 8 9 9 9 9 10 11 11 10 10 9 8 8 8 7 7 7 6 6 5 5 5 4 4 3
10 10 7 5 7 7 1 3 1 3 4 5 3 2 3 5 6 7 8 9 9 9 8 9 10 11 10 9 8 8 8 8 8 8 7 6 6 6 6 6 6 5 4 4
7 5 1 5 4 2 2 1 1 2 3 4 4 4 4 5 6 7 8 8 8 9 9 8 9 9 10 9 9 9 9 9 8 8 7 6 7 7 6 5 4 4 4 3
7 6 4 4 4 4 3 3 2 1 2 4 5 5 5 5 6 7 7 8 8 9 9 8 8 8 8 9 9 10 10 9 8 8 7 6 5 5 5 5 5 4 4 3
9 5 4 5 5 4 3 3 2 2 3 4 5 5 5 5 6 7 7 7 8 8 9 9 9 8 8 9 10 10 9 8 7 7 6 6 5 3 4 4 3 4 4 3
6 5 5 4 2 2 3 3 3 2 3 4 5 5 6 5 6 7 7 8 8 8 8 9 9 8 8 8 9 10 8 7 6 6 5 5 5 4 3 1 3 2 1 1
6 4 4 3 3 3 3 3 3 3 4 4 4 5 6 6 6 7 7 8 8 9 8 8 8 8 8 8 9 9 8 7 6 6 6 6 6 5 5 3 3 3 2 2
4 3 4 4 3 2 2 2 2 3 3 4 4 5 5 6 6 7 7 7 8 8 8 8 8 8 8 8 8 8 8 7 6 6 5 5 5 5 5 5 5 4 4 4
6 6 4 3 2 2 3 4 4 4 4 4 5 5 6 6 7 6 6 7 8 8 8 8 8 7 7 8 8 8 7 6 5 5 5 5 5 5 4 5 4 4 4 4
5 4 5 5 5 4 4 5 4 4 4 5 5 5 5 5 5 6 7 7 8 8 8 8 8 7 8 8 8 6 5 6 6 5 5 5 5 4 4 4 4 4 4 3
6 6 6 6 6 6 5 5 4 4 5 5 5 5 6 6 6 6 6 6 6 6 7 7 7 7 7 8 7 5 5 6 8 6 5 5 5 4 4 4 4 4 3 3
7 6 6 6 6 6 5 5 4 5 5 5 6 6 7 7 7 6 6 6 6 6 6 6 7 7 7 7 6 5 5 6 6 6 5 5 4 4 4 4 4 4 3 3
6 6 6 6 6 5 5 5 5 4 5 5 6 7 6 6 6 6 7 7 7 7 6 6 8 8 8 7 6 5 6 6 6 6 5 5 5 4 4 4 4 4 4 3
4 4 5 5 5 5 5 5 5 5 5 6 6 6 6 6 6 7 7 6 5 4 6 7 8 7 7 7 7 5 6 6 6 6 5 5 5 5 5 4 4 4 4 4
4 4 5 4 4 4 4 5 5 5 6 6 7 7 6 6 7 7 6 5 5 5 6 8 7 6 6 6 8 5 6 6 6 6 5 5 5 5 5 4 4 4 4 4
4 4 4 4 4 4 4 4 5 6 6 6 6 6 6 6 6 6 5 4 5 7 6 6 5 6 7 7 6 6 6 6 5 5 5 5 5 5 5 4 4 4 4 3
3 3 3 4 4 4 4 4 5 5 6 6 6 7 6 5 5 5 4 4 5 7 6 5 6 9 10 7 5 6 6 6 6 5 5 5 5 4 4 4 4 3 3 3
2 3 3 3 4 4 4 4 4 4 5 5 5 6 6 5 4 4 3 5 7 7 5 6 9 11 10 5 5 5 5 5 5 5 5 4 4 4 4 4 4 3 3 3
3 3 3 4 4 3 4 4 4 4 4 4 4 5 4 3 4 4 4 6 7 7 5 7 10 11 7 5 5 5 5 5 4 4 5 5 4 4 4 3 3 3 3 3
2 2 2 2 2 2 3 3 3 3 3 3 3 3 3 3 4 4 4 6 7 6 5 5 7 7 6 5 5 5 4 4 5 5 5 4 4 4 4 3 4 3 2 2
2 2 2 2 2 2 2 3 3 3 3 4 3 3 3 3 4 4 5 5 5 5 5 5 5 5 5 4 4 4 4 4 4 4 4 4 3 3 3 4 3 2 2 2
Wind_Direction
250 245 223 233 225 215 225 239 253 259 260 259 244 216 199 187 181 176 175 175 174 174 174 174 174 173 173 168 167 166 164 165 163 157 156 159 157 154 148 144 145 140 139 132
225 217 227 242 238 227 230 238 245 256 264 267 245 214 197 190 184 184 181 181 179 177 175 176 175 172 169 169 168 168 168 164 156 159 157 157 158 154 147 151 157 152 149 137
234 206 236 241 229 222 220 224 233 244 252 231 217 208 202 195 192 192 187 183 181 179 179 180 177 173 173 171 167 169 167 161 163 163 160 161 160 154 157 161 160 160 151 141
245 227 242 249 182 228 233 240 240 248 251 236 231 220 212 203 196 192 187 184 183 180 178 177 170 170 171 166 168 170 170 167 167 166 162 161 163 161 164 159 156 163 153 149
238 245 255 246 212 205 221 243 235 235 234 222 190 197 196 191 196 192 186 183 179 178 173 169 166 167 166 167 169 172 172 172 171 167 164 163 165 166 166 161 159 164 154 159
231 241 247 228 154 186 226 231 195 215 214 189 184 211 170 165 184 182 174 169 166 168 166 166 164 166 168 169 170 173 172 172 168 167 166 168 167 166 162 161 162 164 159 167
231 240 249 179 136 178 220 204 128 202 198 187 206 257 106 147 159 162 161 158 158 161 163 164 163 166 170 169 173 169 164 162 162 166 170 168 163 163 161 160 163 168 158 158
223 233 233 139 168 207 295 28 166 194 192 195 194 135 127 141 147 150 152 154 158 158 158 160 165 170 168 169 164 158 157 160 163 165 164 163 160 163 165 161 164 167 166 162
228 240 50 173 208 259 320 281 241 214 190 179 171 164 150 150 150 151 152 154 157 156 153 155 164 172 168 163 160 158 159 162 163 163 163 163 164 166 166 169 175 177 178 178
233 236 227 220 236 247 247 257 261 226 187 179 178 167 159 155 154 152 151 154 157 157 155 154 161 171 165 158 162 162 164 165 164 165 164 164 169 173 174 177 181 186 187 189
235 237 233 226 225 234 245 243 225 195 180 180 176 171 166 161 159 156 154 156 158 161 160 158 161 164 157 159 162 163 165 165 164 166 164 163 166 173 184 183 189 192 193 194
238 231 242 236 239 237 237 227 209 188 172 171 175 172 168 164 160 159 157 157 158 160 161 159 159 159 156 161 167 166 166 164 163 164 164 166 164 154 89 107 113 122 68 220
261 265 273 272 262 240 232 224 207 193 178 170 169 166 166 161 158 158 159 160 162 162 161 159 158 159 159 164 169 171 167 164 162 165 166 171 173 171 163 138 126 147 165 176
234 236 240 231 231 226 209 197 184 176 171 163 155 156 159 156 155 159 163 163 161 159 159 158 159 161 161 164 168 169 165 160 163 167 170 175 178 181 179 176 173 170 167 169
220 231 235 225 206 192 180 173 168 166 160 154 149 154 158 159 158 158 155 156 157 158 159 159 163 164 163 165 168 169 165 164 166 165 170 172 175 179 180 182 180 176 168 159
204 207 203 206 206 203 196 190 184 176 168 160 158 159 158 155 151 151 154 158 162 164 166 167 168 164 164 166 167 168 165 157 162 164 165 170 174 179 180 182 184 187 187 178
189 196 199 204 208 211 209 205 199 187 177 170 163 155 153 150 152 156 158 162 164 165 169 170 167 162 166 169 169 168 164 160 165 168 170 173 175 180 182 185 189 191 190 164
211 215 217 215 213 212 210 203 194 186 178 165 158 160 162 164 166 164 162 159 159 164 171 170 163 163 167 171 172 169 168 167 173 174 171 173 175 180 185 189 192 194 190 169
211 215 217 216 214 209 201 194 187 179 170 165 166 168 169 171 169 167 165 169 172 174 173 166 160 168 167 167 169 173 173 172 173 173 172 167 178 185 189 193 195 197 198 198
201 203 205 206 204 199 193 185 178 175 172 170 169 167 169 171 171 173 176 180 185 176 166 164 168 171 167 166 171 176 177 178 177 176 176 181 187 190 194 198 201 203 205 210
192 187 187 187 187 190 189 184 179 179 177 178 178 176 174 172 174 177 180 184 179 169 167 165 174 172 170 164 175 179 179 181 180 179 182 187 192 194 197 199 202 207 211 216
192 189 185 181 179 182 183 183 181 179 178 180 181 177 172 173 177 184 191 189 169 162 169 175 178 166 163 164 177 179 181 184 184 182 185 190 193 196 198 199 203 207 214 221
189 193 190 187 185 180 176 180 181 180 180 180 181 180 180 178 180 181 184 176 166 166 175 177 164 159 165 174 178 180 183 187 186 186 188 192 195 198 199 202 206 210 214 217
173 178 180 179 175 176 181 181 181 181 180 178 182 181 178 175 180 186 172 153 159 164 178 163 160 165 171 180 176 179 183 186 187 187 185 189 192 195 198 202 204 207 212 218
157 157 160 170 179 186 184 173 169 170 170 169 169 173 177 177 172 165 159 158 154 161 165 160 164 169 176 178 176 179 182 184 183 182 184 187 189 194 197 199 202 204 210 218
154 159 172 190 188 180 177 174 175 173 169 165 161 160 158 154 152 150 149 154 157 159 162 162 167 174 179 175 175 176 176 174 176 183 186 187 190 191 193 196 201 205 210 216
147 153 160 164 164 173 178 180 181 180 178 173 164 158 157 155 152 151 151 154 158 161 162 163 166 171 171 171 172 172 172 171 173 180 183 185 187 190 190 192 196 200 205 217